CZ-4 DEB, 26347

Orbit data source: Space-Track

CZ-4 DEB, 26347 is space debris in SSO originally from a launch on Thu, 14 Oct 1999 UTC launched from the Taiyaun Space Center, China (TSC). Debris objects in space refer to the collection of defunct objects orbiting the Earth. Examples of debris include non-operational satellites, rocket bodies, and fragments generated from explosions, collisions, or faulty payload assembly.

Loading next visibility...
Identifier
26347, 1999-057JG
Orbit
SSO
Country
Flag of CNCN / PRC
Related business
Manufacturer
Unknown
Mission
Spacecraft
Bus & Motor
Unknown
Mass
Unknown
Launch date (UTC)
1999-10-14 (26 years ago)
Launch vehicle
Unknown
Launch site
Taiyaun Space Center, China (TSC)
Object type
Payload
Rocket body
Debris
Shape & HBR
Unknown shape, 0.1 m
Radar Cross Section
Small (<0.1 m²)

Expand to show TLE details & history
Last TLE update: 2 days ago

TLE from 2 days ago
0 CZ-4 DEB
1 26347U 99057JG  25295.60323127  .00002882  00000-0  64765-3 0  9990
2 26347  98.4747 352.9668 0055179  53.8295 306.7988 14.56353827346818
Epoch: 2025-10-22T14:28Z
TLE epoch observation values (Epoch: 2025-10-22T14:28:39.181Z)
Latitude
-0.0001°
Longitude
104.52909°
Altitude
684.666 km
Speed
7.526 km/s
True Right ascension
23h 31m 52s
True Declination
0° 00' 00"
Sunlit
Object was in full shadow at epoch
Visualization orbit readout
Latitude
Unknown
Longitude
Unknown
Altitude
Unknown
Speed
Unknown
Apparent Right ascension
Unknown
Apparent Declination
Unknown
Sunlit
N/A
Visualization observer readout
Local Sidereal Time
12:07:00
Azimuth
Unknown
Elevation
Unknown
Doppler factor
Unknown
Orbital elements
Apogee altitude
741.138 km
Perigee altitude
663.003 km
Semi-major axis
7,080.207 km
Eccentricity
0.00552
Inclination
98.4747°
RAAN
352.9668°
Arg. of periapsis
53.8295°
True anomaly
306.29039°
Mean anomaly
306.7988°
Eccentric anomaly
306.54481°
Mean motion
3.64313 °/min
Orbital period
98.82 mins
BSTAR
0.00064765
Loading maneuver chart data...
Computing Atmospheric mass density...

Documentation

Showing up to 5 results
|